EHI
14 16 18 19 20 22 24 24 23 21 17 14 11 9 9 9 10 9 7 6 6 4 1 1 0 0 1 0 0 0 0 0 0 0 0 0 0 0 0 0 0 0 0
25 28 30 28 27 28 28 28 27 26 22 18 16 13 11 11 10 8 7 6 6 5 2 1 1 1 2 2 1 1 1 1 0 0 0 0 0 0 0 0 0 0 0
35 40 44 42 39 37 36 33 32 30 27 24 21 18 15 12 9 7 6 6 7 6 4 2 2 2 3 4 3 3 4 3 1 1 1 1 0 0 0 0 0 0 0
34 41 48 49 46 43 39 35 34 32 29 25 24 21 17 13 9 7 6 5 6 5 4 3 4 4 4 4 4 4 5 4 1 1 2 1 0 0 0 0 0 0 0
29 35 42 44 44 43 40 37 36 35 30 27 26 23 19 14 11 9 9 9 7 5 4 5 7 6 5 5 6 6 6 5 3 1 1 1 0 0 0 0 0 0 0
24 29 34 37 40 42 42 43 44 41 36 32 29 25 21 17 15 14 14 13 10 7 6 7 10 11 10 9 10 9 7 6 6 5 3 1 0 0 0 0 0 0 0
19 24 31 37 42 46 49 51 52 50 46 39 33 29 24 19 17 16 15 14 11 10 9 10 14 16 14 13 13 12 10 9 10 9 7 3 1 0 1 1 1 0 0
16 21 29 39 46 50 53 55 56 56 53 46 38 33 27 19 15 14 13 12 11 12 12 14 16 17 15 15 15 14 12 12 11 9 8 5 2 0 1 3 3 1 0
14 19 28 38 46 50 52 53 53 55 53 46 40 33 26 21 17 14 12 12 12 14 16 18 17 17 18 18 18 17 15 14 12 9 8 7 5 3 3 4 4 3 1
16 21 30 37 43 47 51 50 47 47 46 42 36 28 24 24 22 19 15 15 15 16 19 20 19 20 22 22 21 19 16 16 15 14 13 12 11 8 6 5 5 4 4
22 26 32 36 39 44 51 51 45 42 41 39 32 27 25 25 25 21 17 16 16 16 17 18 19 22 24 25 22 18 15 16 18 19 19 18 16 14 11 8 6 6 6
28 30 34 38 40 44 50 52 48 43 41 37 31 28 27 25 23 20 16 14 15 14 13 14 16 20 23 23 21 17 15 16 17 18 19 19 19 18 15 11 8 7 6
34 34 38 41 42 43 47 49 47 43 39 35 32 30 27 22 19 15 12 12 13 13 12 11 13 16 18 20 21 20 17 16 15 15 17 17 17 18 16 12 8 7 6
37 40 43 46 45 45 46 46 44 40 37 37 36 33 28 22 18 14 11 11 13 14 13 12 13 15 16 18 20 19 17 15 15 15 15 14 13 14 13 10 8 8 7
36 39 44 46 47 48 48 46 44 41 39 38 38 36 31 25 21 19 16 14 13 14 15 15 16 16 15 13 13 13 12 13 15 16 14 11 9 9 7 6 6 7 8
31 34 39 42 46 49 48 45 44 42 39 38 38 36 33 27 24 22 21 18 16 15 16 16 16 15 12 8 6 6 8 10 14 16 15 11 7 4 3 3 3 3 5
26 29 34 40 45 48 46 43 43 42 39 37 36 35 33 30 26 24 21 21 19 18 17 16 15 13 10 5 3 3 6 9 12 15 16 12 7 5 4 4 3 3 4
22 26 31 38 45 49 46 42 41 40 38 36 34 31 30 30 30 27 22 20 20 19 18 17 16 13 8 5 2 2 5 9 11 13 13 11 8 6 6 7 7 8 8
22 26 32 38 45 48 44 38 36 34 33 32 30 27 26 27 29 28 23 20 19 19 18 17 14 11 7 5 2 1 5 7 9 10 9 8 7 5 4 6 9 10 11
27 31 35 40 43 44 39 35 31 28 26 26 26 26 24 23 24 24 21 17 16 15 14 13 10 8 6 4 1 1 4 6 7 7 6 4 3 2 2 4 6 8 9
31 33 36 40 40 36 33 32 30 26 24 23 24 23 19 17 17 19 17 13 11 11 8 7 7 6 4 3 1 1 3 5 5 5 5 3 1 0 0 1 2 4 4
29 29 31 34 32 28 28 30 29 27 25 24 21 17 14 11 11 13 12 9 8 7 4 3 4 4 4 3 1 0 2 3 3 3 3 2 1 0 0 0 0 1 1
24 24 24 27 27 25 26 29 30 28 26 23 19 15 12 9 9 11 10 7 5 5 3 3 4 4 4 4 2 0 0 1 1 2 1 1 0 0 0 0 0 0 0
23 23 23 25 28 26 26 28 28 28 24 20 17 16 13 11 10 10 9 7 5 4 4 4 4 3 3 3 2 0 0 0 0 0 0 0 0 0 0 0 0 0 0
24 24 24 27 29 27 25 24 24 25 23 19 16 14 12 11 10 9 7 6 4 4 4 4 3 2 1 1 1 0 0 0 0 0 0 0 0 0 0 0 0 0 0
27 25 26 27 27 25 22 20 20 23 24 20 15 11 10 10 10 8 6 3 3 3 4 4 3 1 0 0 0 0 0 0 0 0 0 0 0 0 0 0 0 0 0
Wind_Speed
13 13 13 13 12 12 12 12 12 11 8 7 7 7 6 5 5 5 6 6 6 5 4 3 3 3 3 3 3 2 3 2 1 2 1 2 3 3 3 3 3 4 4
13 14 14 14 14 14 13 13 13 12 11 8 7 5 5 5 4 4 5 6 6 6 5 5 4 4 3 4 3 3 2 2 2 2 2 2 3 3 3 3 4 4 3
14 14 14 15 15 15 15 12 13 12 12 10 7 6 5 4 5 6 5 6 7 7 6 5 5 4 4 4 4 4 4 3 3 2 2 2 1 1 3 3 3 3 3
12 13 14 15 15 15 14 13 13 13 12 11 10 10 8 7 7 5 5 6 7 7 6 6 5 5 5 4 5 4 3 4 3 2 2 3 2 2 1 3 4 4 4
12 13 14 14 15 15 14 13 14 13 13 12 12 11 10 8 6 6 6 6 6 7 7 6 6 6 5 5 5 3 4 4 4 3 3 3 3 4 4 2 2 3 3
11 11 11 12 13 14 13 13 14 14 13 13 13 12 11 9 8 8 6 6 5 6 7 7 6 6 5 5 5 5 6 5 4 4 3 3 3 3 3 3 3 3 2
9 10 11 12 13 14 14 13 14 14 13 13 13 12 12 10 9 8 7 6 5 5 7 7 6 6 6 6 6 5 5 6 5 5 4 4 4 3 3 4 3 3 2
8 9 10 11 12 13 13 13 14 13 13 13 12 11 11 8 7 8 6 6 5 5 6 7 7 7 7 7 6 6 6 5 5 6 5 4 5 4 4 3 4 4 3
8 9 9 10 11 12 12 13 13 12 12 12 11 10 10 9 7 7 7 6 6 5 6 7 7 7 7 7 6 6 6 5 6 6 7 6 4 4 4 3 4 5 4
7 8 8 9 10 10 11 11 11 11 11 11 10 8 9 9 8 8 8 7 6 5 6 6 7 7 7 7 7 6 6 6 6 5 5 6 5 4 4 4 4 4 5
6 6 7 8 9 9 10 10 10 10 9 9 9 8 8 9 8 8 8 7 7 7 7 7 7 7 7 7 7 7 7 7 6 6 6 7 6 4 4 4 5 4 4
5 6 6 7 8 8 9 9 8 8 8 8 8 8 7 7 7 7 7 7 7 7 7 6 7 7 7 7 7 8 7 7 7 7 6 7 5 6 5 4 5 4 4
5 6 6 7 7 8 8 8 8 7 7 7 7 7 7 7 7 6 6 6 6 6 6 6 7 7 6 7 7 7 7 7 6 6 6 6 6 6 5 5 5 4 4
6 6 6 6 6 6 7 7 7 7 7 7 7 7 7 7 6 6 6 6 6 6 6 6 6 5 6 6 6 6 6 6 6 5 5 5 5 5 5 5 5 4 4
6 6 6 5 6 6 6 6 6 6 6 6 6 6 5 5 5 5 5 5 5 5 5 5 4 4 4 4 5 5 6 5 5 5 5 5 3 2 3 3 3 4 4
5 6 5 6 6 6 6 6 6 5 5 6 6 5 5 5 5 4 5 5 5 4 4 3 4 4 3 1 1 4 5 5 5 5 5 4 5 4 3 2 1 2 4
4 5 5 5 5 5 5 6 6 5 5 5 5 5 5 5 5 5 5 4 4 4 4 3 3 3 1 2 2 2 4 4 3 3 3 3 2 3 3 4 4 2 1
4 3 4 4 5 5 5 6 6 6 5 5 5 5 5 5 5 4 4 4 3 3 3 3 2 2 1 2 2 2 3 2 2 1 1 1 1 1 1 2 2 1 1
3 3 3 4 5 5 6 6 6 6 5 4 4 4 5 5 5 5 4 3 3 3 3 2 2 1 2 2 1 2 2 2 1 1 1 1 1 3 2 1 1 1 0
4 3 4 5 5 5 6 6 6 5 5 4 3 4 4 4 5 5 4 4 4 4 3 3 3 2 2 3 2 2 2 2 2 2 3 4 4 4 2 2 1 1 0
5 5 5 5 5 5 6 6 5 4 4 4 3 4 4 4 4 4 4 4 4 4 3 4 3 3 3 4 4 2 0 1 2 2 2 4 7 6 4 3 2 2 1
6 6 5 6 5 5 5 5 5 4 4 4 4 4 3 3 3 4 4 3 4 4 4 4 3 3 3 4 4 4 3 2 3 3 3 5 8 7 5 4 4 3 1
5 5 6 6 5 5 5 5 4 4 5 5 5 4 4 3 3 4 4 3 3 3 3 3 3 3 3 5 6 6 5 4 4 5 8 8 7 6 6 5 4 2 1
5 5 6 6 5 4 5 5 4 4 5 5 5 4 4 4 4 2 2 2 2 2 2 2 3 3 3 3 3 3 4 6 6 5 8 8 7 5 5 4 3 3 3
4 4 5 5 5 5 4 4 4 4 5 5 5 4 4 5 5 5 5 4 5 4 2 2 3 3 4 5 6 4 4 3 4 4 5 4 4 4 4 3 3 3 2
4 5 5 5 5 5 4 4 3 4 5 5 5 4 4 4 5 7 8 13 10 11 11 9 7 7 8 8 8 8 8 6 5 4 5 4 4 4 4 3 3 3 3
Wind_Direction
192 188 191 191 187 187 188 189 192 188 192 193 196 195 197 203 208 212 210 210 215 211 220 226 193 223 222 228 223 221 209 224 200 236 238 223 216 210 204 212 216 200 205
192 190 190 191 192 190 192 192 196 195 198 197 201 204 205 205 209 218 213 217 214 217 215 219 221 215 225 224 227 228 245 223 205 236 252 231 191 198 196 202 211 208 205
196 193 194 195 194 193 194 195 197 197 202 197 197 197 198 214 209 210 211 216 217 217 226 224 232 227 233 224 226 226 233 236 226 229 260 273 256 204 177 205 206 207 221
202 198 197 196 198 197 194 195 196 199 199 199 205 206 209 213 214 215 213 209 213 220 219 223 227 230 236 231 229 218 230 237 235 213 230 267 310 278 221 199 190 204 221
205 202 200 196 197 196 195 195 196 199 198 203 207 213 220 218 215 213 214 217 214 220 220 220 223 226 231 233 241 230 240 230 237 234 224 224 223 243 263 256 228 213 215
206 200 197 193 195 196 196 195 195 199 199 202 209 215 221 221 220 214 212 215 214 215 217 219 220 226 229 224 226 226 227 237 238 242 237 234 237 238 242 249 246 248 240
200 194 192 190 191 195 196 196 195 197 199 202 208 213 219 220 220 221 217 222 221 212 212 219 220 224 222 223 223 220 232 227 224 230 235 240 251 256 258 263 262 263 244
193 192 190 190 189 191 194 195 193 195 196 201 206 212 215 218 218 218 224 221 229 226 215 217 220 222 221 219 214 224 223 221 225 229 230 239 243 247 249 262 274 269 254
188 187 184 186 185 189 192 194 191 192 194 199 201 205 210 216 217 214 220 226 226 225 218 217 220 222 219 219 216 225 226 223 226 226 220 233 233 241 246 245 254 266 273
178 181 180 180 182 184 186 188 191 193 194 197 201 202 205 209 212 218 219 224 226 229 223 220 219 219 217 215 217 220 218 222 225 236 242 240 234 236 240 242 246 255 267
163 168 173 173 176 177 178 183 185 187 191 200 201 204 205 206 208 213 218 218 220 220 221 221 221 219 218 215 215 222 215 220 223 225 225 229 243 239 237 231 237 242 248
148 151 159 160 165 168 170 173 177 181 187 193 198 202 203 205 207 211 215 215 217 220 219 218 221 222 218 216 216 221 219 222 224 224 226 228 224 226 243 241 239 240 248
138 140 146 153 160 161 166 166 171 177 182 185 194 197 200 206 210 212 210 209 213 217 217 216 220 223 222 219 220 223 225 226 227 228 228 230 228 226 228 235 239 238 238
139 139 142 146 150 156 162 165 170 172 175 179 188 193 197 200 204 206 202 201 205 211 212 215 218 221 223 222 222 222 223 227 228 230 232 230 227 225 230 233 239 248 254
144 143 144 145 148 152 158 162 167 168 170 175 183 190 188 188 190 193 193 194 200 204 203 207 210 217 221 224 221 220 219 224 226 225 226 225 220 233 243 254 241 241 249
148 146 147 150 155 157 160 159 160 161 166 172 175 175 173 173 176 181 183 182 186 191 190 196 203 211 220 117 221 245 226 225 228 226 223 211 198 197 205 243 298 301 264
145 146 147 153 157 157 158 160 157 156 159 164 161 162 163 163 169 176 175 178 177 177 179 190 201 205 149 110 166 216 234 227 228 224 217 220 175 188 199 180 185 208 261
137 137 142 144 147 145 147 150 148 151 155 158 158 162 164 164 161 159 163 169 169 165 167 177 181 184 112 103 160 190 213 225 226 208 198 197 189 207 194 190 177 193 169
125 122 127 135 136 135 140 145 144 145 149 152 155 163 167 163 155 153 157 158 151 146 153 146 142 145 94 76 144 191 188 161 145 116 91 120 129 67 87 146 159 140 77
104 108 118 126 125 127 137 142 142 144 143 139 147 156 161 160 155 151 152 149 148 143 133 117 112 98 78 64 85 190 187 151 145 121 100 76 72 73 84 151 148 137 8
102 104 110 110 111 123 132 134 133 130 121 119 130 139 147 153 149 141 142 143 145 138 129 117 109 95 75 86 79 72 183 140 137 115 102 82 84 82 75 66 56 41 10
106 106 106 100 102 114 122 122 122 119 118 120 119 119 131 148 138 133 136 140 144 144 138 126 116 102 87 72 79 83 77 38 91 83 78 84 92 90 82 71 53 44 16
104 106 110 106 102 109 118 120 119 122 124 124 121 117 118 119 123 129 138 147 157 163 151 142 128 104 92 90 91 99 94 85 90 83 83 86 96 101 93 78 69 74 61
105 105 108 107 103 103 105 110 117 125 129 126 125 126 122 115 107 105 115 122 135 148 140 131 121 106 86 66 85 115 119 122 115 106 108 109 101 91 83 89 79 55 36
102 102 104 105 101 96 95 103 111 118 122 122 123 122 115 107 93 75 50 57 48 30 50 94 94 89 86 55 43 53 72 76 87 104 102 93 90 84 77 71 60 47 44
101 102 102 104 103 100 94 95 104 115 122 127 129 125 119 118 116 107 86 57 57 57 57 54 70 79 77 80 74 72 73 78 96 100 90 84 76 67 58 52 52 45 33